Terminal Aerodrome Forecast
Issued by NWS Blacksburg, VA

Home | Current Version | Previous Version | Text Only | Print | Product List | Glossary On
Versions: 1 2 3 4 5 6 7 8 9 10 11 12 13 14 15 16 17 18 19 20 21 22 23 24 25 26 27 28 29 30 31 32 33 34 35 36 37 38
000
FTUS41 KRNK 271733
TAFDAN
TAF
KDAN 271733Z 2718/2818 VRB04KT P6SM FEW009 BKN013 OVC021
     FM272000 31010G15KT P6SM BKN045
     FM280000 31010KT P6SM SKC
     FM280600 31005KT P6SM SKC=

USA.gov is the U.S. government's official web portal to all federal, state and local government web resources and services.